C/2024 G3 ( ATLAS )

Japanese version
Home page
Updated on November 30, 2024

---------------------------------------------------------------------

* Profile

Discovery Date April 5, 2024
Magnitude 19.2 mag
Discoverer Asteroid Terrestrial-Impact Last Alert System (ATLAS) search program

* Pictures

* Orbital Elements

Epoch 2024 Oct. 17.0 TT = JDT 2460600.5
T 2025 Jan. 13.42898 TT                                 Rudenko
q   0.0935252            (2000.0)            P               Q
z  -0.0000952      Peri.  108.12535     -0.04069055     +0.81534820
 +/-0.0000034      Node   220.33878     +0.14761168     +0.57658088
e   1.0000089      Incl.  116.84643     +0.98820801     -0.05255281
From 271 observations 2024 Apr. 5-Oct. 28, mean residual 0".4.

* Finding Charts

* Magnitudes Graph

        m1 = 9.0 + 5 log d + 10.0 log r

---------------------------------------------------------------------

The orbital elements are published on M.P.E.C. 2024-U268.
The charts are made with StellaNavigator Ver.11 (AstroArts).
The magnitudes graphs are made with Comet for Windows.

---------------------------------------------------------------------

Copyright(C) Seiichi Yoshida (comet@aerith.net). All rights reserved.